#timestamp,LO_Frequency,Hit,StdDev 
1647090015.1,286047002.4,N
1647090016.0,286047002.4,N
1647090035.8,286047002.5,N
1647090055.7,286047001.5,N
1647090075.5,286047004.2,N
1647090095.3,286047004.4,N
1647090115.2,286047004.1,N
1647090135.0,286047005.6,N
1647090135.9,286047005.6,N
1647090155.8,286047005.4,N
1647090175.6,286047007.3,Y
1647090195.4,286047005.6,P
1647090215.3,286047005.8,P
1647090235.1,286047004.3,N
1647090255.8,286047002.4,N
1647090275.7,286047003.6,N
1647090295.5,286047001.7,N
1647090315.4,286046997.2,N
1647090335.2,286046994.2,N
1647090355.0,286046994.2,N
1647090355.9,286046994.2,N
1647090375.8,286046992.8,N
1647090395.6,286046987.8,N
1647090415.4,286046982.4,Y
1647090435.3,286046979.0,P
1647090455.1,286046981.5,N
1647090475.9,286046978.0,N
1647090495.7,286046979.9,N
1647090515.5,286046975.9,Y
1647090535.4,286046991.9,P
1647090555.2,286046987.5,N
1647090575.0,286046987.2,P
1647090576.0,286046987.2,Y
1647090595.8,286047003.0,P
1647090615.6,286047004.4,N
1647090635.5,286047005.2,N
1647090655.3,286047008.8,N
1647090675.1,286047008.5,N
1647090695.9,286047010.7,N
1647090715.7,286047010.2,N
1647090735.5,286047009.4,N
1647090755.4,286047013.9,N
1647090775.2,286047013.6,N
1647090795.1,286047013.4,N
1647090796.0,286047013.4,N
1647090815.8,286047012.9,N
1647090835.6,286047011.1,N
1647090855.5,286047009.4,N
1647090875.3,286047008.2,N
1647090895.1,286047006.7,N
1647090915.9,286047010.2,N
1647090935.7,286047003.5,N
1647090955.6,286047003.2,N
1647090975.4,286047007.6,N
1647090995.2,286047006.0,N
1647091015.1,286047002.8,N
1647091016.0,286047002.8,N
1647091035.8,286046999.9,N
1647091055.6,286047001.8,N
1647091075.5,286046998.9,N
1647091095.3,286046998.5,N
1647091115.2,286046997.5,N
1647091135.9,286046995.4,N
1647091155.7,286046996.0,N
1647091175.6,286046991.0,N
1647091195.4,286046988.2,N
1647091215.2,286046988.3,N
1647091235.1,286046982.6,N
1647091236.0,286046982.6,N
1647091255.8,286046985.9,N
1647091275.7,286046984.9,N
1647091295.5,286046985.0,N
1647091315.3,286046986.0,N
1647091335.2,286046991.2,N
1647091355.0,286046994.4,N
1647091355.9,286046994.4,N
1647091375.8,286046990.2,N
1647091395.6,286046987.3,N
1647091415.4,286046985.7,N
1647091435.3,286046982.5,N
1647091455.1,286046978.9,N
1647091475.8,286046976.8,N
1647091495.7,286046976.8,N
1647091515.5,286046975.4,N
1647091535.4,286046976.5,N
1647091555.2,286046975.0,Y
1647091575.0,286046982.6,P
1647091575.9,286046982.6,P
1647091595.8,286046990.8,N
1647091615.6,286046991.7,N
1647091635.4,286046988.7,N
1647091655.3,286046980.8,Y
1647091675.1,286046987.6,P
1647091695.9,286046984.2,P
1647091715.7,286046984.6,P
1647091735.5,286046986.8,Y
1647091755.4,286046993.9,P
1647091775.2,286046990.6,N
1647091795.0,286046990.0,P
1647091796.0,286046990.0,Y
1647091815.8,286047000.7,P
1647091835.6,286046997.3,N
1647091855.5,286046997.8,N
1647091875.3,286046996.8,N
1647091895.1,286046998.7,N
1647091915.9,286046994.6,N
1647091935.7,286046995.0,N
1647091955.6,286046990.2,Y
1647091975.4,286046995.7,P
1647091995.2,286046998.8,P
1647092015.1,286046996.8,N
1647092016.0,286046996.8,N
1647092035.8,286046998.4,N
1647092055.6,286047000.3,N
1647092075.5,286046998.2,N
1647092095.3,286046998.2,N
1647092115.2,286047001.0,N
1647092135.9,286047004.3,N
1647092155.7,286047004.7,N
1647092175.6,286047007.5,N
1647092195.4,286047007.4,N
1647092215.2,286047006.8,N
1647092235.1,286047005.8,N
1647092236.0,286047005.8,N
1647092255.8,286047007.3,N
1647092275.7,286047005.7,N
1647092295.5,286047007.4,N
1647092315.3,286047003.7,N
1647092335.2,286047009.2,N
1647092355.0,286047009.2,N
1647092355.9,286047009.2,N
1647092375.7,286047010.3,N
1647092395.6,286047011.4,N
1647092415.4,286047010.1,N
1647092435.3,286047008.7,N
1647092455.1,286047010.9,N
1647092456.0,286047010.9,N
1647092475.8,286047010.6,N
1647092495.7,286047008.6,N
1647092515.5,286047011.9,N
1647092535.3,286047010.3,N
1647092555.2,286047008.7,N
1647092575.0,286047009.0,N
1647092575.9,286047009.0,N
1647092595.8,286047008.7,N
1647092615.6,286047010.8,Y
1647092635.4,286047000.0,P
1647092655.3,286047003.1,N
1647092675.1,286047003.0,N
1647092695.9,286047005.9,N
1647092715.7,286046998.9,N
1647092735.5,286047002.3,N
1647092755.4,286046997.7,N
1647092775.2,286046997.9,N
1647092795.0,286046993.5,N
1647092795.9,286046993.5,N
1647092815.8,286046997.8,N
1647092835.6,286046994.5,N
1647092855.5,286046988.6,N
1647092875.3,286046989.8,N
1647092895.1,286046984.5,N
1647092915.9,286046984.4,N
1647092935.7,286046979.0,Y
1647092955.5,286046986.6,P
1647092975.4,286046987.6,N
1647092995.2,286046987.5,N
1647093015.1,286046990.8,N
1647093016.0,286046990.8,N
1647093035.8,286046991.7,N
1647093055.6,286046991.4,N
1647093075.5,286046987.8,Y
1647093095.3,286046995.4,P
1647093115.1,286046992.2,P
1647093135.9,286046991.7,P
1647093155.7,286046994.2,Y
1647093175.6,286047001.6,P
1647093195.4,286047001.1,N
1647093215.2,286046996.8,N
1647093235.1,286046994.2,N
1647093236.0,286046994.2,N
1647093255.8,286046991.6,N
1647093275.7,286046988.9,N
1647093295.5,286046987.0,Y
1647093315.3,286046991.6,P
1647093335.2,286046989.7,P
1647093355.0,286046990.6,P
1647093355.9,286046990.6,Y
1647093375.8,286047002.4,P
1647093425.6,286047015.5,E
1647093435.5,286047007.1,N
1647093455.4,286046993.2,P
1647093475.2,286046989.4,N
1647093495.1,286046989.2,N
1647093496.0,286046989.2,N
1647093515.8,286046982.2,N
1647093535.7,286046983.5,N
1647093555.5,286046977.6,N
1647093575.3,286046978.4,N
1647093595.2,286046980.0,N
